Showing default

IRIDIUM 100, 42956

Orbit data source: Space-Track

IRIDIUM 100, 42956 is a payload satellite owned by Iridium (US) in LEO that was launched on Mon, 09 Oct 2017 UTC via an FALCON 9 launch vehicle from the Air Force Western Test Range (AFWTR). Payloads include a variety of satellites, spacecraft, and rockets equipped with specific instruments for various scientific and technological missions. These include communications satellites like Starlink; space stations such as the ISS; scientific satellites like the Hubble; Earth observation satellites from companies like Planet Labs, Umbra, and HawkEye 360; GPS; miniature CubeSats for education and research; and military/defense satellites.

Loading next visibility...
IRIDIUM 100 details
Identifier
42956, 2017-061B
Orbit
LEO
Last TLE update10 hours ago
Origin
Flag of USIridium (US)
ManufacturerOATK SSG Gilbert
MissionOperational Commercial Communications
Bus & MotorELITEBUS, Unknown motor
Mass860 kg wet, 700 kg dry
Launch date (UTC)
2017-10-09 (7 years ago)
Launch vehicle
FALCON 9
Launch site
Air Force Western Test Range (AFWTR)
Object type
Payload
Rocket body
Debris
Shape & HBRTrap Box + 2 Pan, 9.4 m
Radar Cross Section14.423 m², Large (>1 m²)

Expand to show TLE details & history

TLE from 10 hours ago
0 IRIDIUM 100
1 42956U 17061B   24361.45878074  .00000042  00000-0  80527-5 0  9993
2 42956  86.3966 249.8613 0001833  85.1965 274.9440 14.34216710377701
Epoch: 2024-12-26T11:00Z
Definitive object data (Epoch: 2024-12-26T11:00:38.655Z)
Latitude-0.00006°
Longitude-10.73765°
Altitude780.609 km
Speed7.464 km/s
True Right ascension16h 39m 26s
True Declination0° 00' 00"
Sunlit
Object was in daylight at TLE epoch
Visualization TLE readout
Latitude-86.39422°
Longitude-94.64665°
Altitude807.734 km
Speed7.448 km/s
Apparent Right ascension08h 15m 28s
Apparent Declination-65° 01' 43"
Sunlit
Object is in daylight
Visualization observer readout
Local Sidereal Time20:01:15
Azimuth183.526° SSW
Elevation-64.804°
Doppler factor1
Orbital elements
Apogee altitude775.946 km
Perigee altitude773.324 km
Semi-major axis7,152.772 km
Eccentricity0.0001833
Inclination86.3966°
RAAN249.8613°
Arg. of periapsis85.1965°
True anomaly274.92307°
Mean anomaly274.944°
Eccentric anomaly274.93354°
Mean motion3.58783 °/min
BSTAR0.0000080527
Orbital period100.34 mins
Loading maneuver chart data...
Loading historical data...
Loading historical data...
Loading historical data...
Loading historical data...
Loading historical data...
Loading historical data...
Loading historical data...

IRIDIUM 100 Visibility forecast

Observer location: undefined°, undefined

Span
Click to sort rows by Start time (UTC) header in descending order
Start Az.
Max El. time (UTC)
Max El. Az.
Max El.
End time (UTC)
End Az.
9 mins2024-12-27 04:19:23.998Z13.752° NNE2024-12-27 04:24:23.998Z88.821° E31.952°2024-12-27 04:28:23.998Z147.855° SSE
6 mins2024-12-27 06:02:23.998Z311.852° NW2024-12-27 06:04:23.998Z281.932° WNW20.894°2024-12-27 06:08:23.998Z229.729° WSW
8 mins2024-12-27 17:16:23.998Z178.244° S2024-12-27 17:20:23.998Z35.979° NE44.641°2024-12-27 17:24:23.998Z3.99° NNE
|